This is the latest recevied weather packets stored in our database for station/object CA4LJZ-10. If no packets are shown the sender has not sent any weather packets the latest 1 day(s).
| Time | Temp. | Humidity | Pressure | Rain* | Wind** | Luminosity | Snow |
|---|---|---|---|---|---|---|---|
| 1777870853 | 18.89° C | 37% | 955.1 hPa | - | - | - | - |
| 1777869953 | 19.44° C | 37% | 955.5 hPa | - | - | - | - |
| 1777869052 | 19.44° C | 36% | 955.2 hPa | - | - | - | - |
| 1777868151 | 19.44° C | 36% | 955.3 hPa | - | - | - | - |
| 1777867250 | 20° C | 36% | 955.4 hPa | - | - | - | - |
| 1777866349 | 20° C | 36% | 955.5 hPa | - | - | - | - |
| 1777865448 | 20° C | 35% | 955.4 hPa | - | - | - | - |
| 1777864547 | 20° C | 36% | 955.2 hPa | - | - | - | - |
| 1777863646 | 20° C | 35% | 955.3 hPa | - | - | - | - |
| 1777862746 | 20.56° C | 34% | 955.6 hPa | - | - | - | - |
| 1777861844 | 21.67° C | 34% | 955.5 hPa | - | - | - | - |
| 1777860962 | 20° C | 36% | 955.5 hPa | - | - | - | - |
| 1777860061 | 19.44° C | 39% | 955.4 hPa | - | - | - | - |
| 1777859160 | 19.44° C | 37% | 955.4 hPa | - | - | - | - |
| 1777858315 | 19.44° C | 35% | 955.6 hPa | - | - | - | - |
| 1777858259 | 19.44° C | 35% | 955.6 hPa | - | - | - | - |
| 1777857358 | 20° C | 35% | 955.2 hPa | - | - | - | - |
| 1777856458 | 20° C | 33% | 955.1 hPa | - | - | - | - |
| 1777855557 | 20° C | 30% | 955.1 hPa | - | - | - | - |
| 1777854656 | 20° C | 30% | 955 hPa | - | - | - | - |
| 1777853755 | 20.56° C | 31% | 955 hPa | - | - | - | - |
| 1777852854 | 20.56° C | 32% | 955.2 hPa | - | - | - | - |
| 1777851953 | 20.56° C | 29% | 955 hPa | - | - | - | - |
| 1777851052 | 21.11° C | 29% | 954.8 hPa | - | - | - | - |
| 1777850151 | 22.22° C | 31% | 954.7 hPa | - | - | - | - |
* Rain since midnight (hover to see other rain measurements)
** Current wind speed in m/s (hover to see current wind gust speed)